| time (UTC) | temp F | wind direction | speed MPH | gust MPH | rain 1hr in | rain 24hr in | rain mn in | humidity % | barometer mb |
| 20260505041607 | 0 | 92 | 0.0 | 6.0 | 0.00 | 0.00 | 0.00 | 1005.3 | |
| 20260505040100 | 0 | 62 | 5.0 | 9.0 | 0.00 | 0.00 | 0.00 | 1005.4 | |
| 20260505034606 | 0 | 52 | 4.0 | 10.0 | 0.00 | 0.00 | 0.00 | 1005.2 | |
| 20260505033044 | 0 | 34 | 2.0 | 9.0 | 0.00 | 0.00 | 0.00 | 1004.9 | |
| 20260505031539 | 0 | 35 | 2.0 | 10.0 | 0.00 | 0.00 | 0.00 | 1004.5 | |
| 20260505030044 | 0 | 59 | 7.0 | 14.0 | 0.00 | 0.00 | 0.00 | 1004.3 | |
| 20260505024530 | 0 | 48 | 5.0 | 14.0 | 0.00 | 0.00 | 0.00 | 1004.0 | |
| 20260505023032 | 0 | 51 | 7.0 | 16.0 | 0.00 | 0.00 | 0.00 | 1003.9 | |
| 20260505021530 | 0 | 64 | 7.0 | 16.0 | 0.00 | 0.00 | 0.00 | 1003.9 | |
| 20260505020026 | 0 | 52 | 8.0 | 19.0 | 0.00 | 0.00 | 0.00 | 1003.8 | |
| 20260505014535 | 0 | 51 | 7.0 | 14.0 | 0.00 | 0.00 | 0.00 | 1003.6 | |
| 20260505013025 | 0 | 41 | 6.0 | 18.0 | 0.00 | 0.00 | 0.00 | 1003.3 | |
| 20260505011525 | 0 | 26 | 9.0 | 20.0 | 0.00 | 0.00 | 0.00 | 1003.2 | |
| 20260505010024 | 0 | 27 | 9.0 | 19.0 | 0.00 | 0.00 | 0.00 | 1003.1 | |
| 20260505004547 | 0 | 27 | 8.0 | 22.0 | 0.00 | 0.00 | 0.00 | 1003.0 | |
| 20260505003020 | 0 | 25 | 12.0 | 21.0 | 0.00 | 0.00 | 0.00 | 1003.2 | |
| 20260505001516 | 0 | 15 | 10.0 | 24.0 | 0.00 | 0.00 | 0.00 | 1002.9 | |
| 20260505000016 | 0 | 17 | 14.0 | 23.0 | 0.00 | 0.00 | 0.00 | 1002.7 | |
| 20260504234513 | 0 | 315 | 13.0 | 27.0 | 0.00 | 0.00 | 0.00 | 1002.8 | |
| 20260504233011 | 0 | 340 | 9.0 | 21.0 | 0.00 | 0.00 | 0.00 | 1002.8 | |
| 20260504231510 | 0 | 12 | 13.0 | 24.0 | 0.00 | 0.00 | 0.00 | 1002.7 | |
| 20260504230010 | 0 | 336 | 11.0 | 27.0 | 0.00 | 0.00 | 0.00 | 1002.8 | |
| 20260504224509 | 0 | 314 | 17.0 | 27.0 | 0.00 | 0.00 | 0.00 | 1002.8 | |
| 20260504223009 | 0 | 344 | 12.0 | 28.0 | 0.00 | 0.00 | 0.00 | 1002.7 | |
| 20260504221508 | 0 | 34 | 15.0 | 25.0 | 0.00 | 0.00 | 0.00 | 1002.7 | |
| 20260504220007 | 0 | 325 | 16.0 | 29.0 | 0.00 | 0.00 | 0.00 | 1002.8 | |
| 20260504214507 | 0 | 312 | 14.0 | 27.0 | 0.00 | 0.00 | 0.00 | 1002.8 | |
| 20260504213019 | 0 | 35 | 10.0 | 23.0 | 0.00 | 0.00 | 0.00 | 1002.9 | |
| 20260504211506 | 0 | 331 | 10.0 | 22.0 | 0.00 | 0.00 | 0.00 | 1003.5 | |
| 20260504210005 | 0 | 18 | 14.0 | 26.0 | 0.00 | 0.00 | 0.00 | 1003.5 | |
| 20260504204507 | 0 | 17 | 13.0 | 27.0 | 0.00 | 0.00 | 0.00 | 1003.6 | |
| 20260504203005 | 0 | 26 | 9.0 | 20.0 | 0.00 | 0.00 | 0.00 | 1003.8 | |
| 20260504201504 | 0 | 342 | 15.0 | 26.0 | 0.00 | 0.00 | 0.00 | 1003.7 | |
| 20260504200007 | 0 | 41 | 10.0 | 26.0 | 0.00 | 0.00 | 0.00 | 1003.6 | |
| 20260504194507 | 0 | 335 | 11.0 | 21.0 | 0.00 | 0.00 | 0.00 | 1003.7 | |
| 20260504193002 | 0 | 344 | 11.0 | 23.0 | 0.00 | 0.00 | 0.00 | 1003.6 | |
| 20260504191622 | 0 | 331 | 10.0 | 21.0 | 0.00 | 0.00 | 0.00 | 1003.7 | |
| 20260504190058 | 0 | 329 | 7.0 | 25.0 | 0.00 | 0.00 | 0.00 | 1003.6 | |
| 20260504184556 | 0 | 13 | 12.0 | 25.0 | 0.00 | 0.00 | 0.00 | 1003.7 | |
| 20260504183045 | 0 | 24 | 12.0 | 23.0 | 0.00 | 0.00 | 0.00 | 1003.6 | |
| 20260504181541 | 0 | 342 | 12.0 | 21.0 | 0.00 | 0.00 | 0.00 | 1003.6 | |
| 20260504180037 | 0 | 335 | 11.0 | 21.0 | 0.00 | 0.00 | 0.00 | 1003.8 | |
| 20260504174532 | 0 | 48 | 11.0 | 19.0 | 0.00 | 0.00 | 0.00 | 1003.8 | |
| 20260504173027 | 0 | 326 | 11.0 | 21.0 | 0.00 | 0.00 | 0.00 | 1003.7 | |
| 20260504171523 | 0 | 61 | 10.0 | 18.0 | 0.00 | 0.00 | 0.00 | 1003.9 | |
| 20260504081544 | 0 | 309 | 11.0 | 23.0 | 0.00 | 0.00 | 0.00 | 1001.1 |